Mitchell, SD

8:58 AM CST on December 09, 2019 (GMT -0600)
Mitchell Municipal

Weather History for KMHE - November, 2019

Change the Weather History Date:

Monday, November 11, 2019

  Actual Average Record
Temperature  
Mean Temperature 13 °F 37 °F  
Max Temperature 18 °F 47 °F 77 °F (2005)
Min Temperature 7 °F 26 °F -8 °F (1986)
Degree Days  
Heating Degree Days 52 28  
Month to date heating degree days 373 278  
Since 1 July heating degree days 1052 919  
Cooling Degree Days 0 0  
Month to date cooling degree days 0 0  
Year to date cooling degree days 937 824  
Moisture  
Dew Point 5 °F    
Average Humidity 67    
Maximum Humidity 80    
Minimum Humidity 53    
Precipitation  
Precipitation T in 0.02 in 0.80 in (1998)
Month to date precipitation 0.12 0.40  
Year to date precipitation 34.12 20.69  
Snow  
Snow T in - 5.80 in (2000)
Month to date snowfall 0.6  
Since 1 July snowfall 0.6  
Since 1 September snowfall 0.6  
Snow Depth T in    
Sea Level Pressure  
Sea Level Pressure 30.71 in    
Wind  
Wind Speed 14 mph (NNW)    
Max Wind Speed 26 mph    
Max Gust Speed 37 mph    
Visibility 8 miles    
Events Snow    
T = Trace of Precipitation, MM = Missing Value Source: NWS Daily Summary

Daily Weather History Graph

Daily Weather History Graph

Search for Another Location

Airport or City:

Astronomy

Nov. 11, 2019 Rise Set
Actual Time 7:21 AM CST 5:10 PM CST
Civil Twilight 6:50 AM CST 5:41 PM CST
Nautical Twilight 6:15 AM CST 6:15 PM CST
Astronomical Twilight 5:42 AM CST 6:49 PM CST
Moon 5:09 PM CST (11/11) 6:09 AM CST (11/11)
Length of Visible Light 10h 51m
Length of Day
9h 49m
Waxing Gibbous, 99% of the Moon is Illuminated
Nov 11
Waxing Gibbous
Nov 12
Full
Nov 19
Last Quarter
Nov 26
New
Dec 4
First Quarter

Hourly Weather History & Observations

Time (CST) Temp. Windchill Dew Point Humidity Pressure Visibility Wind Dir Wind Speed Gust Speed Precip Events Conditions
12:15 AM 18.0 °F 5.4 °F 10.9 °F 74% 30.56 in 4.0 mi NNW 11.5 mph - 0.00 in Snow Light Snow
12:41 AM 18.0 °F 4.2 °F 12.9 °F 81% 30.55 in 1.8 mi North 13.8 mph - 0.00 in Snow Light Snow
12:53 AM 18.0 °F 2.6 °F 12.9 °F 81% 30.62 in 1.2 mi NNW 17.3 mph 23.0 mph 0.00 in Snow Light Snow
1:01 AM 18.0 °F 3.1 °F 12.9 °F 81% 30.56 in 3.0 mi NNW 16.1 mph - 0.00 in Snow Light Snow
1:23 AM 18.0 °F - 10.9 °F 74% 30.58 in 9.0 mi North - - 0.00 in Snow Light Snow
1:53 AM 17.1 °F - 9.0 °F 71% 30.65 in 10.0 mi North - - 0.00 in   Mostly Cloudy
2:53 AM 16.0 °F -0.9 °F 8.1 °F 71% 30.67 in 10.0 mi NNW 19.6 mph - N/A   Overcast
3:43 AM 16.0 °F -1.7 °F 9.0 °F 74% 30.62 in 6.0 mi NNW 21.9 mph 29.9 mph 0.00 in Snow Light Snow
3:53 AM 15.1 °F -1.6 °F 8.1 °F 74% 30.70 in 9.0 mi NW 18.4 mph 28.8 mph 0.00 in Snow Light Snow
4:49 AM 12.2 °F -8.2 °F 5.0 °F 73% 30.64 in 10.0 mi NNW 26.5 mph 34.5 mph 0.00 in   Mostly Cloudy
4:53 AM 12.9 °F -6.5 °F 3.9 °F 67% 30.71 in 10.0 mi NNW 24.2 mph 36.8 mph 0.00 in   Mostly Cloudy
5:53 AM 10.9 °F -6.5 °F 3.0 °F 70% 30.74 in 10.0 mi NNW 17.3 mph - N/A   Partly Cloudy
7:53 AM 10.0 °F -5.9 °F 1.0 °F 67% 30.78 in 10.0 mi NNW 13.8 mph - N/A   Clear
8:53 AM 12.0 °F -5.1 °F 1.9 °F 64% 30.79 in 10.0 mi NNW 17.3 mph 26.5 mph N/A   Clear
9:53 AM 14.0 °F -2.0 °F 3.9 °F 64% 30.79 in 10.0 mi NNW 16.1 mph 26.5 mph N/A   Mostly Cloudy
10:26 AM 14.0 °F -2.5 °F 6.1 °F 71% 30.70 in 1.8 mi NNW 17.3 mph - 0.00 in Snow Light Snow
10:36 AM 14.0 °F -3.4 °F 5.0 °F 67% 30.71 in 3.0 mi NNW 19.6 mph 28.8 mph 0.00 in Snow Light Snow
10:53 AM 15.1 °F -2.5 °F 3.9 °F 61% 30.79 in 10.0 mi NW 20.7 mph 26.5 mph 0.00 in   Overcast
11:53 AM 16.0 °F -2.5 °F 3.9 °F 59% 30.79 in 10.0 mi NNW 24.2 mph 31.1 mph N/A   Mostly Cloudy
12:53 PM 15.1 °F -2.0 °F 1.0 °F 54% 30.79 in 10.0 mi NNW 19.6 mph 29.9 mph N/A   Mostly Cloudy
1:53 PM 15.1 °F -1.6 °F 1.9 °F 56% 30.78 in 10.0 mi NW 18.4 mph 25.3 mph N/A   Partly Cloudy
2:53 PM 16.0 °F -0.9 °F 3.0 °F 57% 30.77 in 10.0 mi NW 19.6 mph 26.5 mph N/A   Mostly Cloudy
3:53 PM 14.0 °F -1.4 °F 3.0 °F 62% 30.76 in 8.0 mi NW 15.0 mph - 0.00 in Snow Light Snow
4:53 PM 12.9 °F -1.6 °F 1.9 °F 62% 30.76 in 10.0 mi NNW 12.7 mph - 0.00 in   Partly Cloudy
5:53 PM 12.0 °F -0.4 °F 3.0 °F 67% 30.76 in 10.0 mi NNW 9.2 mph - N/A   Mostly Cloudy
6:53 PM 9.0 °F - 3.0 °F 77% 30.78 in 10.0 mi Calm Calm - N/A   Clear
7:53 PM 8.1 °F 1.4 °F 3.0 °F 80% 30.77 in 10.0 mi NNW 3.5 mph - N/A   Clear
8:53 PM 9.0 °F 2.4 °F 3.9 °F 80% 30.75 in 10.0 mi West 3.5 mph - N/A   Clear
9:53 PM 9.0 °F 2.4 °F 3.0 °F 77% 30.75 in 10.0 mi West 3.5 mph - N/A   Clear
10:53 PM 7.0 °F -1.7 °F 1.9 °F 80% 30.75 in 10.0 mi WSW 4.6 mph - N/A   Clear
11:53 PM 8.1 °F - 1.9 °F 76% 30.71 in 10.0 mi Calm Calm - N/A   Clear